Regional Weather Roundup
Issued by NWS Wakefield, VA

Home | Current Version | Previous Version | Graphics & Text | Print | Product List | Glossary On
Versions: 1 2 3 4 5 6 7 8 9 10 11 12 13 14 15 16 17 18 19 20 21 22 23 24 25 26 27 28 29 30 31 32 33 34 35 36 37 38 39 40 41 42 43 44 45 46 47 48 49 50
000
ASUS41 KAKQ 011914
RWRAKQ

REGIONAL WEATHER ROUNDUP
NATIONAL WEATHER SERVICE WAKEFIELD VA
300 PM EDT TUE SEP 01 2015

Note: "fair" indicates few or no clouds below 12,000 feet with no
significant weather and/or obstructions to visibility. * = Denotes
station may not report precipitation (e.g., rain,snow,etc.),
thunder or fog.

VAZ042-051-052>054-056-012000-
NORTHERN VIRGINIA

CITY           SKY/WX    TMP DP  RH WIND       PRES   REMARKS
WASH NATIONAL  PTSUNNY   95  65  37 N7        30.03F HX  97
DULLES         MOSUNNY   91  66  43 NW9       30.05F
FORT BELVOIR   MOSUNNY   91  65  41 VRB2      30.02F
QUANTICO       MOSUNNY   87  74  64 S7        30.03F HX  95
FREDERICKSBRG* MOSUNNY   94  68  42 NE5       30.03F HX  98
STAFFORD*      SUNNY     91  60  35 N7        30.08F
WARRENTON      SUNNY     93  67  42 N6        30.05F HX  96
CULPEPER*      SUNNY     89  67  47 CALM      30.06F
MANASSAS*      NOT AVBL
LEESBURG*      MOSUNNY   91  68  46 NW8G18    30.06F HX  95
WINCHESTER     SUNNY     91  61  35 NW7       30.06F
FRONT ROYAL*   FAIR      90  66  45 E8        30.05F
LURAY*         FAIR      90  59  35 NE3       30.06F
$$

VAZ048-049-060>072-079>083-012000-
CENTRAL AND SOUTH CENTRAL VIRGINIA

CITY           SKY/WX    TMP DP  RH WIND       PRES   REMARKS
RICHMOND       MOSUNNY   91  68  46 E9        30.04F HX  95
CHESTERFIELD*  MOCLDY    91  61  35 E5        30.06F
PETERSBURG*    MOSUNNY   91  69  47 E3        30.05F HX  96
HANOVER        MOSUNNY   89  68  49 CALM      30.06F
TAPPAHANNOCK*  SUNNY     91  58  32 CALM      30.05F
QUINTON*       FAIR      89  68  50 SE7       30.05S
CHARLOTTSVILLE MOSUNNY   89  66  46 E5        30.07F
GORDONSVILLE*  CLOUDY    86  70  59 CALM      30.05F
ORANGE*        PTSUNNY   90  64  43 NW5       30.07F
LOUISA*        MOSUNNY   91  66  43 CALM      30.05F
BUMPASS*       FAIR      90  68  48 CALM      30.05F
FARMVILLE*     MOSUNNY   93  60  33 NE8       30.04F
CREWE*         FAIR     N/A N/A N/A CALM      30.06F
FORT PICKETT*  FAIR      89  65  44 E9        30.06F
CHASE CITY*    FAIR      92  68  44 NE5       30.07S HX  96
CLARKSVILLE*   MOCLDY    88  70  55 CALM      30.06F
SOUTH HILL*    MOSUNNY   86  70  59 E3        30.12F
LAWRENCEVILLE* MOCLDY    88  72  58 NE3       30.06F
EMPORIA*       MOSUNNY   86  70  58 CALM      30.07F
$$

VAZ088>098-012000-
SOUTHEAST VIRGINIA

CITY           SKY/WX    TMP DP  RH WIND       PRES   REMARKS
NORFOLK        SUNNY     86  68  54 N6        30.04F
VIRGINIA BEACH PTSUNNY   88  72  58 E10       30.04F
NORFOLK NAVAL  MOSUNNY   86  70  58 N6        30.05F
WEST POINT*    SUNNY     92  65  41 S6        30.06S
SALUDA*        FAIR      85  70  60 E6        30.04F
NEWPORT NEWS   SUNNY     88  66  48 E7        30.04F
LANGLEY AFB    SUNNY     87  69  55 E6        30.03F
FORT EUSTIS    SUNNY     86  67  52 SW6       30.03F
WILLIAMSBURG*  SUNNY     91  72  52 CALM      30.05F HX  98
HR EXEC AP*      N/A     88  73  62 CALM      30.06F HX  96
FRANKLIN*      MOSUNNY   83  70  64 CALM      30.06F
WAKEFIELD      MOSUNNY   89  68  49 NW5       30.05F
$$

VAZ020-022-025-037-045-012000-
WEST CENTRAL AND SOUTHWEST VIRGINIA

CITY           SKY/WX    TMP DP  RH WIND       PRES   REMARKS
STAUNTON*      MOSUNNY   90  60  36 SW3       30.11F
WAYNESBORO*    MOCLDY    88  63  42 CALM      30.12S
HOT SPRINGS VA CLOUDY    71  63  75 NW8       30.26S
LYNCHBURG      MOSUNNY   90  62  39 VRB3      30.10F
DANVILLE       MOSUNNY   90  65  43 MISG      30.07F
SOUTH BOSTON*  FAIR      92  62  36 CALM      30.06F
MARTINSVILLE   MOSUNNY   91  60  34 CALM      30.11F
ROANOKE        MOSUNNY   91  61  36 W3        30.12F
BLACKSBURG     CLOUDY    82  67  61 NW7       30.20F
DUBLIN*        CLOUDY    84  65  53 NE7       30.19S
MARION*        PTSUNNY   82  61  48 CALM      30.23S
HILLSVILLE*    PTSUNNY   80  64  57 CALM      30.20S
RICHLANDS*     MOCLDY    79  22  12 CALM      30.21F
WISE*          PTSUNNY   82  59  44 CALM      30.23S
ABINGDON*      MOSUNNY   86  59  39 CALM      30.18S
$$

MDZ021>025-VAZ099-100-012000-
SOUTHERN MARYLAND AND THE DELMARVA PENINSULA

CITY           SKY/WX    TMP DP  RH WIND       PRES   REMARKS
PATUXENT RIVER MOSUNNY   86  71  60 E8        30.04F
BAY BRIDGE APT   N/A     88  66  48 CALM      30.02F
LEONARDTOWN    NOT AVBL
DOVER          SUNNY     90  72  55 E8        30.00F HX  97
GEORGETOWN     PTSUNNY   87  68  52 E8        30.02F
EASTON         MOSUNNY   91  70  49 NW8       30.06F HX  97
CAMBRIDGE      SUNNY     88  72  58 NW6       30.02F
SALISBURY      MOSUNNY   91  69  48 SW9       30.01F HX  96
OCEAN CITY     SUNNY     85  73  67 SW7       30.03F
WALLOPS ISLAND SUNNY     86  71  60 SE10G17   30.04F
ACCOMACK*      PTSUNNY   82  77  83 W7        30.04F
$$

NCZ012>017-030>032-012000-
NORTH CENTRAL AND EASTERN NORTH CAROLINA

CITY           SKY/WX    TMP DP  RH WIND       PRES   REMARKS
ROANOKE RAPIDS FAIR      86  68  54 NE6       30.06F
RALEIGH        MOSUNNY   90  68  48 E5        30.07F
ELIZABETH CITY MOSUNNY   86  72  62 N6        30.04F
AHOSKIE*       MOSUNNY   81  69  68 N3        30.06F
EDENTON*       SUNNY     81  70  68 W7        30.06F
CURRITUCK*     SUNNY     83  71  65 NE7       30.05F
KILL DEVIL HLS SUNNY     86  72  63 NE6       30.04S
MANTEO         CLOUDY    82  72  72 E8        30.05S
CAPE HATTERAS  SUNNY     85  74  69 VRB6      30.05S
TARBORO*       MOCLDY    87  70  56 CALM      30.06F
GOLDSBORO      MOSUNNY   89  71  56 N7        30.05F
WASHINGTON     SUNNY     82  71  68 CALM      30.06F
GREENVILLE     MOSUNNY   84  72  65 NW5       30.08S
NEW BERN       SUNNY     85  70  60 NW6       30.06F
WILMINGTON     PTSUNNY   85  71  63 N6        30.06F
$$

VAZ048-012000-
ELSEWHERE

CITY           SKY/WX    TMP DP  RH WIND       PRES   REMARKS
HARRISBURG PA  MOSUNNY   88  63  43 W9        30.03F
BALTIMORE      MOSUNNY   92  65  40 N7        30.02F
ANNAPOLIS      SUNNY     85  72  65 SE9       30.03F
ANDREWS AFB    SUNNY     89  66  46 NE7       30.03F
PHILADELPHIA   MOSUNNY   93  58  30 N3        30.01F
HENDERSON NC   MOSUNNY   88  62  41 NE8       30.07F
GREENSBORO     PTSUNNY   91  61  36 VRB5      30.09F
ROCKY MOUNT    SUNNY     89  67  47 NE6       30.06F
$$

VAZ100-012000-
MARINE

STATION/POSITION TIME  TEMP    WIND        PRES    WAVE   SWELL
                       AIR SEA DIR/SP/G            HT/PER HT/PER
                 (UTC) (F)     (DEG/KT/KT) (MB)    (FT/S) (FT/S)
BRANDYWINE LGT   1800   83 76   CALM  /  1 1017.5F
CAPE MAY NJ      1800   79 80  260/  5/  5 1017.0F
LEWES DE         1800   81 75  100/  7/  9 1017.1F
15NM E FENWICK I 1850   79 81   CALM  /  2 1017.3F   1/ 8   2/ 8
OCEAN-CITY-INLET 1800   81 77  190/  8/ 11 1016.5F
THOMAS POINT MD  1900   81 81  180/  4/  4 1017.3
GOOSES REEF MD   1900   84 84     CALM     1018.1F
COVE POINT MD    1800   81     350/  2/  3 1018.4F
SOLOMONS ISLAND  1800      81                N/A
BISHOPS HEAD MD  1800   77 82  260/  7/  8 1016.9F
PINEY POINT MD   1805           CALM  /  1   N/A
POTOMAC MD       1900   80 82  120/  6/  6 1016.1F   0
CAMBRIDGE MD     1800   82 80  330/  7/  9 1016.4F
LEWISETTA VA     1800   79 80   80/  5/  6 1017.4F
RAPPAHANNOCK LGT 1800          250/  6/  6 1018.5F
STINGRAY PT      1900   80 83  160/  6/  6 1017.9F   0
YORK RVR RNG VA  1800   78     170/  3/  4 1017.6F
YORKTOWN VA      1800   80 80   80/  6/  7 1017.7F
JAMESTOWN VA     1900   83 83  160/  4/  6   N/A
DOMINION TERM VA 1800   79     180/  2/  2 1017.9F
KIPTOPEKE VA     1800      79  250/  6/  8   N/A
CHES BAY BRIDGE  1800   78 79  340/  4/  4 1017.5F
CAPE HENRY VA    1800   78      10/  5/  6   N/A
CHESAPEAKE LGHT  1800   77      40/  2/  3 1018.6F
WILLOUBY STN VA  1800   79     350/  1/  2 1019.0F
CAPE HENRY BUOY  1828      82                N/A     2/10
1ST LANDING BUOY 1900      81              1017.2F   1/ 4
CAPE CHARLES BUO 1826      81                N/A     2/10   2/10
OFFSHORE WE BUOY 1811      80                N/A     2/ 8   2/ 8
64NM E OF VA BCH 1850   78 79   10/  6/  8 1017.2F   2/ 8   2/ 8
DUCK PIER NC     1800   77 78   30/  7/  7 1017.2F
44100 DUCK FRF   1824      80                N/A     2/10
44056 DUCK FRF   1811      80                N/A     2/10
OREGON INLET NC  1800   80 79   20/  9/ 13 1017.5F
HATTERAS NC      1800   80 80  330/  5/  6 1017.6F
DIAMOND SHLS NC  1850   80 84  350/  8/  8 1017.5F   3/ 6   2/ 6
CAPE LOOKOUT NC  1900   82     260/  6/  8 1017.2F
$$



USA.gov is the U.S. government's official web portal to all federal, state and local government web resources and services.